軌道要素
Epoch 2024 Nov. 26.0 TT = JDT 2460640.5
T 2024 Dec. 10.76750 TT MPCW
q 3.8986864 (2000.0) P Q
n 0.07964858 Peri. 199.26572 +0.64038999 -0.75647144
a 5.3499620 Node 211.33683 +0.73394444 +0.65370329
e 0.2712684 Incl. 14.80116 +0.22633209 +0.02056644
P 12.37
From 165 observations 2000 Dec. 19-2019 May 9, mean residual 0".4.
|